Voltar ao catálogo

COSMOS 1348 DEB

LostHEO
NORAD 32771·DEBRIS·🇷🇺 Russia

Lançado Apr 7, 1982 de Plesetsk Cosmodrome

Loading…

Próximas Passagens (próximas 24 horas)

TLE

ObsoletoSource: Space-Track

Época: Apr 29, 2011, 06:16 UTC

1 32771U 82029E   11119.26152229  .00000039  00000-0  10000-3 0  9999
2 32771  71.4236  24.9352 5028930 150.4083 251.2128  1.95935068 37533

Acompanhe COSMOS 1348 DEB em tempo real com AllMySat

Download on the App Store